This demonstration page uses our WeatherBlox Daily Observations layout. Learn more.

Left ArrowRight Arrow

Hourly Observations for October 26, 2021

Temp ( °F °C ) Dew Point ( °F °C ) Humidity (%) Winds ( mph kmh ) Pressure ( in mb ) Visibility ( mi km ) Precip ( " mm )
12:53 am 00:53 Cloudy 56 13.3 46 7.8 70 70 S 9 15 29.96 1015 10 16 0.00 0.00
1:53 am 01:53 Cloudy 55 12.8 46 7.8 72 72 S 15 24 29.98 1015 10 16 0.00 0.00
2:53 am 02:53 Cloudy 54 12.2 47 8.3 77 77 SSW 10 17 29.99 1016 10 16 0.00 0.00
3:53 am 03:53 Cloudy 54 12.2 47 8.3 77 77 SSW 9 15 30.01 1016 10 16 0.00 0.00
4:53 am 04:53 Cloudy 53 11.7 47 8.3 80 80 SSW 7 11 30.03 1017 10 16 0.00 0.00
5:53 am 05:53 Cloudy 54 12.2 47 8.3 77 77 SSW 8 13 30.04 1017 10 16 0.00 0.00
6:53 am 06:53 Cloudy 53 11.7 47 8.3 80 80 SSW 6 9 30.06 1018 10 16 0.00 0.00
7:53 am 07:53 Cloudy 53 11.7 48 8.9 83 83 SSW 9 15 30.08 1019 10 16 0.00 0.00
8:29 am 08:29 Cloudy 53 11.7 48 8.9 83 83 SSW 8 13 30.10 1019 10 16 0.00 0.00
8:53 am 08:53 Cloudy 54 12.2 48 8.9 80 80 SSW 9 15 30.11 1020 10 16 0.00 0.00
9:53 am 09:53 Cloudy 55 12.8 48 8.9 77 77 S 13 20 30.13 1020 10 16 0.00 0.00
10:53 am 10:53 Cloudy 55 12.8 49 9.4 80 80 SSW 13 20 30.16 1021 9 14 0.00 0.00
11:53 am 11:53 Cloudy 56 13.3 48 8.9 75 75 SSW 9 15 30.17 1022 10 16 0.00 0.00
12:53 pm 12:53 Cloudy with Light Rain 55 12.8 50 10 83 83 SSW 8 13 30.18 1022 5 8 0.00 0.00
1:53 pm 13:53 Cloudy with Mist and Fog 54 12.2 52 11.1 93 93 WNW 5 7 30.17 1022 6 10 0.01 0.25
2:44 pm 14:44 Cloudy with Light Rain 54 12.2 52 11.1 93 93 W 5 7 30.17 1022 3 5 0.01 0.25
2:53 pm 14:53 Cloudy with Light Rain 54 12.2 52 11.1 93 93 WNW 8 13 30.16 1021 4 6 0.01 0.25
3:53 pm 15:53 Cloudy 53 11.7 52 11.1 96 96 NW 3 6 30.19 1022 7 11 0.02 0.51
4:42 pm 16:42 Cloudy 54 12.2 52 11.1 93 93 Calm 30.20 1023 10 16 0.00 0.00
4:53 pm 16:53 Cloudy 54 12.2 52 11.1 93 93 Calm 30.20 1023 10 16 0.00 0.00
5:53 pm 17:53 Cloudy 54 12.2 52 11.1 93 93 WSW 5 7 30.20 1023 10 16 0.00 0.00
6:53 pm 18:53 Cloudy 55 12.8 52 11.1 90 90 N 3 6 30.19 1023 10 16 0.00 0.00
7:53 pm 19:53 Cloudy 54 12.2 52 11.1 93 93 N 5 7 30.20 1023 10 16 0.00 0.00
8:53 pm 20:53 Cloudy 54 12.2 52 11.1 93 93 NNE 5 7 30.21 1023 10 16 0.00 0.00
9:53 pm 21:53 Cloudy 54 12.2 52 11.1 93 93 N 5 7 30.23 1024 10 16 0.00 0.00
10:53 pm 22:53 Cloudy 54 12.2 52 11.1 93 93 undefined N/A 30.24 1024 10 16 0.00 0.00
11:08 pm 23:08 Cloudy 54 12.2 52 11.1 93 93 N 3 6 30.26 1025 10 16 0.00 0.00
11:46 pm 23:46 Cloudy 54 12.2 52 11.1 93 93 NNW 5 7 30.26 1025 7 11 0.00 0.00
11:53 pm 23:53 Cloudy 54 12.2 52 11.1 93 93 N 5 7 30.25 1024 9 14 0.00 0.00

Powered by AerisWeather